This is the latest recevied weather packets stored in our database for station/object OK3MS-5. If no packets are shown the sender has not sent any weather packets the latest 10 day(s).
| Time | Temp. | Humidity | Pressure | Rain* | Wind** | Luminosity | Snow |
|---|---|---|---|---|---|---|---|
| 1787513103 | 13.89° C | 85% | 1021 hPa | 0 mm | - | 0 W/m² | - |
| 1787512809 | 13.33° C | 84% | 1020.9 hPa | 0 mm | - | 0 W/m² | - |
| 1787512506 | 13.33° C | 81% | 1021 hPa | 0 mm | - | 0 W/m² | - |
| 1787512212 | 13.33° C | 82% | 1020.9 hPa | 0 mm | - | 0 W/m² | - |
| 1787511905 | 13.89° C | 81% | 1021 hPa | 0 mm | - | 0 W/m² | - |
| 1787511603 | 13.89° C | 81% | 1020.9 hPa | 0 mm | - | 0 W/m² | - |
| 1787511302 | 13.89° C | 80% | 1020.9 hPa | 0 mm | - | 0 W/m² | - |
| 1787511004 | 14.44° C | 80% | 1020.9 hPa | 0 mm | - | 0 W/m² | - |
| 1787510704 | 14.44° C | 79% | 1020.7 hPa | 0 mm | - | 0 W/m² | - |
| 1787510403 | 14.44° C | 79% | 1020.7 hPa | 0 mm | - | 0 W/m² | - |
| 1787510103 | 15° C | 78% | 1020.4 hPa | 0 mm | - | 0 W/m² | - |
| 1787509802 | 15.56° C | 77% | 1020.3 hPa | 0 mm | - | 0 W/m² | - |
| 1787509502 | 15.56° C | 76% | 1020.1 hPa | 0 mm | - | 0 W/m² | - |
| 1787509204 | 16.11° C | 75% | 1020.1 hPa | 0 mm | - | 0 W/m² | - |
| 1787508906 | 16.67° C | 73% | 1020 hPa | 0 mm | - | 1 W/m² | - |
| 1787508604 | 16.67° C | 71% | 1020 hPa | 0 mm | - | 1 W/m² | - |
| 1787508304 | 17.22° C | 66% | 1019.8 hPa | 0 mm | - | 2 W/m² | - |
| 1787508012 | 17.78° C | 61% | 1019.6 hPa | 0 mm | - | 3 W/m² | - |
| 1787507704 | 17.78° C | 58% | 1019.6 hPa | 0 mm | - | 5 W/m² | - |
| 1787507409 | 18.33° C | 56% | 1019.6 hPa | 0 mm | - | 6 W/m² | - |
| 1787507103 | 18.89° C | 55% | 1019.6 hPa | 0 mm | - | 9 W/m² | - |
| 1787506804 | 18.89° C | 53% | 1019.4 hPa | 0 mm | - | 12 W/m² | - |
| 1787506503 | 20° C | 53% | 1019.3 hPa | 0 mm | - | 15 W/m² | - |
| 1787506203 | 20° C | 52% | 1019.1 hPa | 0 mm | - | 18 W/m² | - |
| 1787505907 | 21.11° C | 49% | 1019 hPa | 0 mm | - | 23 W/m² | - |
* Rain latest hour (hover to see other rain measurements)
** Current wind speed in m/s (hover to see current wind gust speed)